This is the latest recevied weather packets stored in our database for station/object OE-11053. If no packets are shown the sender has not sent any weather packets the latest 10 day(s).
| Time | Temp. | Humidity | Pressure | Rain* | Wind** | Luminosity | Snow |
|---|---|---|---|---|---|---|---|
| 1788615324 | 22.22° C | 59% | 1021 hPa | 0 mm | - | 652 W/m² | - |
| 1788614724 | 22.22° C | 59% | 1021 hPa | 0 mm | - | 748 W/m² | - |
| 1788613897 | 21.67° C | 60% | 1021.1 hPa | 0 mm | - | 697 W/m² | - |
| 1788613524 | 22.22° C | 60% | 1021.1 hPa | 0 mm | - | 716 W/m² | - |
| 1788612924 | 21.11° C | 60% | 1021.2 hPa | 0 mm | - | 614 W/m² | - |
| 1788612097 | 21.11° C | 61% | 1021.5 hPa | 0 mm | - | 723 W/m² | - |
| 1788611724 | 21.67° C | 62% | 1021.6 hPa | 0 mm | - | 754 W/m² | - |
| 1788611124 | 21.11° C | 60% | 1021.6 hPa | 0 mm | - | 742 W/m² | - |
| 1788610297 | 20.56° C | 61% | 1021.6 hPa | 0 mm | - | 754 W/m² | - |
| 1788609923 | 20.56° C | 60% | 1021.7 hPa | 0 mm | - | 780 W/m² | - |
| 1788609324 | 20.56° C | 63% | 1021.9 hPa | 0 mm | - | 716 W/m² | - |
| 1788608497 | 20.56° C | 62% | 1021.8 hPa | 0 mm | - | 735 W/m² | - |
| 1788608124 | 20.56° C | 64% | 1021.9 hPa | 0 mm | - | 697 W/m² | - |
| 1788607524 | 20° C | 64% | 1022 hPa | 0 mm | - | 550 W/m² | - |
| 1788606697 | 20° C | 66% | 1021.9 hPa | 0 mm | - | 454 W/m² | - |
| 1788606324 | 19.44° C | 66% | 1021.8 hPa | 0 mm | - | 505 W/m² | - |
| 1788605723 | 19.44° C | 68% | 1021.9 hPa | 0 mm | - | 448 W/m² | - |
| 1788604886 | 20° C | 68% | 1021.8 hPa | 0 mm | - | 716 W/m² | - |
| 1788604524 | 18.89° C | 71% | 1021.9 hPa | 0 mm | - | 595 W/m² | - |
| 1788603924 | 18.33° C | 73% | 1022.1 hPa | 0 mm | - | 403 W/m² | - |
| 1788603096 | 18.33° C | 74% | 1022.2 hPa | 0 mm | - | 256 W/m² | - |
| 1788602724 | 18.33° C | 74% | 1022.2 hPa | 0 mm | - | 307 W/m² | - |
| 1788602123 | 18.33° C | 76% | 1022.1 hPa | 0 mm | - | 275 W/m² | - |
| 1788601297 | 17.78° C | 77% | 1022.3 hPa | 0 mm | - | 352 W/m² | - |
| 1788600924 | 17.78° C | 79% | 1022.1 hPa | 0 mm | - | 569 W/m² | - |
* Rain latest hour (hover to see other rain measurements)
** Current wind speed in m/s (hover to see current wind gust speed)